In Rescue
 
Open Full Screen Window  High Contrast Mode
Wind Gusting 00 knots
06
July 25, 2021 7:40 AM CDT
Weather Information
Wind Direction
  250 °
Wind Speed
  06 kt (7 mph)
Wind Gust
  00 kt (0 mph)
Altimeter
29.97 in
Visibility
10 SM
Temperature
18° C
64° F
Dewpoint
10° C
50° F
Humidity
60%
1hr Rain Fall
00.00 in.
24hr Rain Fall
00.00 in.
Sky Condition
Clear
VFR

METAR KBJI 251240Z AUTO 25006KT 10SM CLR 18/10 A2997 RMK AO2 T01760104

FAA Disclaimer: The data displayed is for advisory purposes only and is not to be used for flight planning or operations.